GSAT0220 (PRN E13)

Last updated on Feb. 21, 2020, 4:44 a.m. UTC

1 43567U 18060D   20051.34101230 -.00000057  00000-0  00000-0 0  9995
2 43567  56.7378  44.2780 0005999 283.7084  76.2381  1.70475985  9813
UTC
Height (km)
Latitude
Longitude
Inclination
Orbital Period
UTC large
Height (km)
Speed (km/s)
/
Latitude / Longitude
Inclination (degrees)
Orbital Period (minutes)
Azimuth
Elevation
Range (km)
Doppler Factor
iOS Compass Heading
iOS Angle

Next 30 passes for location: Hong Kong

Rise time Rise Azimuth (degrees) Set time Set Azimuth (degrees) Duration Max altitude (degrees)

No matching passes for this satellites